Theta_e
317 318 317 321 325 324 324 325 322 320 320 312 313 314 317 323 323 321 321 323 324 326 325 328 329 327 327 328 328 325 329 332 330 331 335 340 339 338 338 338 340 340 340 339 337 337 337 337 330 322 320 319 317 323 330 332 332 333 334 334 335 335 335 334 329 329 332 331 331 331 332 332 333 334 334 334 334 333 333 333 333 333 332 331 331 331 331 331 331 330 330 330 329 329 330 330 330
320 321 321 323 324 323 324 325 320 316 314 310 312 317 319 322 322 321 322 323 325 324 326 328 328 327 325 325 324 324 329 331 332 335 337 338 338 338 338 338 339 340 340 338 338 339 339 337 329 322 321 320 317 322 329 332 332 333 334 334 335 335 334 334 332 331 332 331 330 332 331 332 333 334 334 334 333 332 333 334 334 334 334 332 332 332 331 331 331 330 330 330 329 329 329 329 329
320 323 324 324 323 323 324 323 318 312 310 309 312 319 321 320 321 322 323 325 326 324 327 330 328 327 324 324 324 325 331 332 335 334 335 337 337 338 337 338 338 339 339 338 339 340 340 336 329 324 322 320 318 319 324 329 331 332 333 334 334 334 333 334 335 333 332 331 331 332 331 332 332 332 333 334 333 332 332 333 333 333 333 331 331 331 331 330 331 330 330 330 330 329 330 329 328
321 322 324 325 325 323 324 322 319 313 310 310 311 318 320 320 321 323 325 325 326 325 328 329 329 328 325 327 324 324 333 335 336 335 335 337 337 337 337 338 337 337 338 339 339 340 340 335 330 326 323 321 319 317 319 325 329 331 333 334 334 334 333 334 335 334 333 331 330 331 331 331 332 332 332 332 332 331 331 331 331 330 330 329 329 330 330 330 330 330 330 330 330 330 330 330 329
322 323 322 324 327 324 324 323 320 316 312 312 312 317 320 320 321 324 325 324 324 326 327 328 330 329 326 328 325 328 335 335 337 337 336 338 338 337 337 337 337 337 338 339 339 341 339 334 332 327 324 322 320 318 317 322 327 331 332 333 334 334 334 334 335 335 333 332 331 330 329 330 331 331 331 331 331 331 331 332 330 329 330 330 330 330 330 330 330 330 330 330 330 330 330 330 329
322 324 322 323 326 323 322 318 315 315 315 318 316 317 320 320 322 324 324 322 323 324 324 327 329 328 328 329 328 332 335 334 337 337 337 338 337 336 337 337 336 337 338 339 339 341 337 334 333 329 326 323 321 319 317 319 325 330 332 333 334 332 333 334 335 334 333 332 331 330 329 330 330 329 331 332 332 331 331 332 331 331 332 332 333 332 330 331 331 330 330 330 330 329 329 329 329
323 324 323 322 323 322 321 316 313 315 317 319 318 318 319 320 322 324 324 322 321 321 322 326 326 325 329 329 329 333 335 337 337 336 337 338 337 337 338 337 336 337 337 339 340 341 336 334 335 331 327 324 322 320 317 318 323 330 332 334 334 332 333 334 335 333 332 332 331 330 329 329 329 329 330 333 333 332 332 332 331 331 332 332 332 332 331 331 331 330 330 330 329 328 328 329 329
322 323 324 323 323 322 321 318 317 318 318 317 318 319 319 321 322 323 323 322 321 320 322 325 324 325 326 327 332 335 334 337 337 336 338 337 337 338 338 336 336 337 337 339 341 340 336 334 335 333 328 327 325 321 318 317 321 328 331 333 334 333 332 333 334 332 331 331 331 329 328 328 329 329 329 331 332 331 331 331 330 330 331 331 330 331 331 331 330 330 330 329 329 328 328 328 328
322 322 323 323 323 321 318 318 318 318 318 317 317 318 320 321 321 322 321 321 321 321 323 324 324 324 323 325 333 335 334 336 336 336 337 337 338 338 337 336 336 336 337 339 341 340 335 335 336 334 330 329 326 322 320 317 319 324 328 332 334 333 332 332 333 333 331 329 329 329 328 328 328 329 329 330 330 330 330 330 330 331 331 331 330 330 330 330 330 329 329 329 329 328 328 328 327
321 321 322 323 322 317 314 316 317 318 319 318 318 317 319 321 321 321 321 321 320 321 323 323 322 322 322 325 333 335 336 335 335 337 337 337 337 338 337 336 336 336 338 340 340 340 336 335 336 335 331 330 327 324 322 319 318 319 323 328 332 332 332 332 332 333 331 328 327 329 328 327 328 328 328 329 328 328 328 329 330 331 331 330 330 330 329 329 329 329 329 329 329 328 327 327 326
321 320 322 322 318 314 312 314 316 319 319 318 318 318 319 320 322 321 320 320 319 322 323 321 320 320 321 325 333 336 336 335 336 337 336 337 337 338 337 337 337 336 338 339 340 340 338 336 336 336 333 332 330 326 324 321 319 317 318 323 328 331 332 330 330 332 332 329 327 328 328 327 327 328 328 328 328 328 328 329 330 330 330 329 329 329 329 329 329 329 328 328 328 327 326 326 326
322 321 322 319 316 316 315 315 316 320 319 318 318 318 318 320 322 322 320 319 318 321 321 321 320 320 320 324 332 336 336 336 336 337 337 337 337 338 337 337 337 336 338 339 339 340 339 338 337 336 335 334 332 328 325 323 321 318 316 319 325 329 331 330 330 332 331 330 328 327 328 327 327 327 327 327 327 328 328 329 329 329 329 328 328 328 328 329 328 328 328 327 328 327 326 326 327
322 322 321 319 319 320 317 317 318 320 318 318 319 318 318 319 321 320 319 318 318 320 320 321 320 320 321 325 332 336 337 337 337 337 337 336 337 337 337 337 337 337 338 339 339 339 339 339 337 337 336 335 334 331 327 325 323 321 317 318 322 325 329 329 329 330 329 330 330 327 327 327 327 327 327 326 326 327 327 329 329 328 329 329 328 328 328 328 327 327 327 327 328 327 326 326 327
322 323 322 321 321 321 318 317 318 317 316 319 319 317 318 319 320 320 319 318 318 318 319 320 320 320 321 324 329 333 337 337 337 337 337 336 336 336 337 337 338 338 338 338 339 339 339 339 339 338 337 335 335 333 329 327 325 323 320 317 319 321 324 324 325 326 326 327 328 327 326 327 327 326 327 326 325 326 327 328 328 329 329 328 327 327 327 327 327 327 327 327 327 327 326 327 326
322 323 323 322 320 319 318 318 318 315 316 320 318 317 318 318 318 319 318 318 318 318 318 319 320 321 319 323 325 331 338 337 337 337 337 336 336 336 336 337 337 338 338 338 338 338 339 339 339 339 338 337 336 335 332 330 327 326 323 319 318 318 320 320 321 323 324 324 324 324 324 325 326 326 327 326 325 325 327 327 328 329 328 327 326 327 326 326 326 326 327 326 326 326 326 326 326
322 322 323 321 318 317 317 319 319 316 318 320 317 317 318 317 316 317 316 316 318 317 318 320 320 320 320 327 331 335 338 337 337 337 337 337 336 335 336 337 337 337 338 338 338 338 338 339 339 339 339 338 338 337 335 333 330 328 326 323 319 317 319 319 319 322 324 323 322 320 320 324 325 326 326 326 325 324 325 327 328 329 328 326 326 326 325 325 325 325 325 325 325 326 326 326 326
321 323 322 318 318 317 317 319 317 316 319 319 316 318 318 317 316 315 314 315 317 317 317 320 320 321 323 328 336 340 338 337 337 337 337 337 336 335 335 336 336 337 337 337 338 338 338 339 339 339 339 339 339 338 338 335 332 330 327 325 321 318 318 318 319 320 321 322 322 320 321 325 326 326 326 326 326 323 323 327 328 328 327 325 325 325 324 324 324 324 324 324 324 324 325 325 325
319 322 320 317 319 319 318 319 316 316 319 318 317 317 318 318 316 315 315 315 317 316 317 319 319 322 324 326 334 339 337 337 337 337 337 337 337 336 335 335 336 336 337 337 338 338 338 339 338 339 339 339 339 338 339 337 334 331 329 327 323 321 318 317 320 319 321 321 320 323 326 328 327 327 327 326 326 324 323 326 328 327 326 324 324 325 324 323 323 322 322 323 323 323 324 325 325
319 321 319 319 321 319 318 319 316 317 318 318 317 318 318 318 317 316 316 316 316 316 316 318 318 322 323 326 333 336 336 337 337 337 338 337 337 336 336 335 336 336 337 337 337 338 338 338 338 338 339 339 339 339 338 338 336 334 334 332 328 326 321 319 325 324 325 324 322 327 329 328 327 328 328 326 326 326 323 325 327 326 325 324 323 324 322 321 320 320 321 322 322 322 324 325 324
319 321 320 321 321 318 317 317 316 316 317 318 318 318 318 317 317 316 316 317 315 316 316 317 318 321 323 327 332 334 335 337 337 337 337 337 337 337 337 336 335 335 336 336 337 337 337 338 338 338 338 338 338 338 338 338 337 335 335 335 332 331 327 325 329 329 329 328 326 329 329 327 327 327 325 324 325 325 324 323 324 324 324 323 322 323 321 318 319 319 320 321 322 323 324 324 324
318 319 320 320 319 317 316 316 315 314 316 317 317 317 317 316 316 316 316 316 316 315 316 317 316 319 323 327 332 334 335 337 337 338 337 337 337 336 337 336 336 336 335 335 336 337 337 337 338 337 338 338 338 337 337 337 337 336 336 335 333 332 331 329 331 329 330 330 328 329 329 326 326 326 322 322 325 326 325 324 323 323 324 324 322 324 322 319 320 320 320 321 323 324 324 324 323
318 317 318 318 318 318 315 314 314 313 315 316 317 317 316 316 315 316 315 316 316 315 316 316 315 319 324 327 333 335 335 337 337 337 337 337 337 337 337 337 337 336 335 335 335 336 336 337 337 337 337 337 337 337 336 337 337 336 336 336 334 333 332 331 331 330 330 330 328 329 329 325 325 326 323 324 327 327 326 325 325 325 325 324 323 324 323 320 321 322 321 322 323 324 324 324 324
318 317 316 316 316 317 314 313 312 312 315 316 317 316 316 315 315 316 316 316 315 314 315 313 315 322 326 329 333 334 335 337 336 337 337 337 337 337 337 337 337 336 336 335 335 336 336 337 337 337 337 337 337 336 336 336 336 336 336 336 335 334 332 331 331 330 330 329 329 329 328 326 326 327 326 326 327 327 327 326 326 326 324 324 323 324 322 320 322 323 323 323 322 321 321 322 323
317 317 316 315 315 315 313 312 311 311 315 315 316 315 315 315 315 315 315 316 314 313 315 314 316 324 327 329 332 333 335 336 336 337 337 337 337 337 337 337 337 336 336 336 335 336 336 337 337 337 337 336 337 336 336 336 335 335 336 336 334 334 333 332 331 331 330 329 329 329 328 328 328 327 327 327 326 326 326 326 326 325 325 324 323 324 322 319 321 322 323 321 320 319 318 320 322
317 317 315 314 313 313 311 311 311 311 313 313 314 315 315 315 314 314 315 316 315 314 316 317 319 322 325 327 329 332 334 335 336 336 337 337 337 336 337 337 337 337 336 336 335 335 336 336 337 337 337 337 337 336 336 336 335 335 335 335 334 334 333 332 332 331 330 330 329 329 328 328 328 328 328 327 326 325 326 326 326 325 325 324 323 323 321 319 321 321 321 321 320 321 320 320 322
316 316 315 314 313 312 311 312 312 312 312 312 314 315 315 313 312 314 316 315 314 313 315 318 319 319 322 325 327 330 333 334 335 335 336 337 337 337 337 337 336 336 336 336 336 335 336 336 337 337 337 336 336 336 336 336 336 335 335 335 335 333 333 332 332 331 330 330 329 329 328 328 328 328 328 327 326 326 326 324 324 325 324 324 322 321 320 318 320 321 321 321 321 321 321 321 321
316 315 314 313 313 312 312 313 312 312 313 312 315 316 313 312 312 315 315 313 312 312 315 318 318 317 320 323 326 330 332 334 335 335 337 336 336 337 336 337 336 336 336 336 336 335 335 336 336 336 337 336 336 336 336 336 336 335 335 335 335 334 333 332 332 332 330 330 329 329 329 328 328 328 328 328 327 326 325 323 322 323 323 322 320 318 317 316 320 321 320 321 321 321 321 320 319
315 314 314 313 313 313 312 313 312 313 313 312 314 315 313 312 313 315 314 311 312 313 315 318 318 318 319 321 325 330 332 333 334 335 336 335 335 336 336 336 336 336 336 336 336 335 335 335 335 336 336 336 336 336 336 335 336 335 335 335 335 335 334 332 332 332 331 330 329 329 328 328 328 328 328 328 327 327 326 324 322 322 322 320 317 316 314 312 317 320 318 318 319 320 320 320 318
315 315 315 313 314 314 313 313 312 313 314 312 313 314 314 314 314 315 312 310 313 314 315 317 317 318 320 322 325 328 331 332 334 334 334 334 335 335 335 335 336 336 336 336 336 336 336 335 334 335 335 336 336 335 335 335 335 335 335 335 335 335 334 333 332 332 331 330 330 329 328 328 327 327 328 328 327 326 326 325 324 323 321 319 316 314 312 309 313 316 314 313 315 317 319 319 318
315 315 316 314 314 314 313 313 312 314 313 311 312 312 313 316 315 314 311 310 312 313 315 317 317 317 320 323 325 327 329 331 333 333 333 334 334 334 334 334 335 336 336 336 336 336 336 335 334 335 334 335 336 335 335 335 335 334 334 335 335 335 334 334 333 332 331 331 330 329 328 328 327 327 327 328 327 326 326 326 326 323 321 320 318 316 312 310 312 313 311 311 313 314 316 318 317
314 315 315 315 313 313 314 313 313 314 311 310 312 310 312 317 315 312 311 311 312 313 314 315 316 318 319 322 323 325 327 330 331 331 333 333 333 334 334 334 335 336 336 336 337 336 336 336 335 334 334 334 335 334 334 334 335 334 334 334 334 335 334 334 334 333 332 331 331 329 329 328 327 327 327 327 327 325 325 326 326 324 322 321 321 319 316 311 312 314 312 313 315 314 315 318 318
314 313 312 314 313 312 314 313 312 314 312 311 312 310 312 315 314 312 311 311 312 313 314 314 316 317 318 319 320 321 324 328 329 329 331 332 332 333 334 334 334 336 337 337 337 336 336 336 335 335 335 334 334 334 333 333 333 334 334 334 333 334 334 334 334 334 333 332 331 330 329 329 329 328 327 327 327 325 325 325 326 324 323 324 323 322 320 314 312 313 312 314 316 316 316 317 317
314 313 312 314 313 313 314 312 312 313 313 312 311 312 314 314 313 311 311 312 312 312 313 314 315 315 316 316 317 318 319 324 327 328 329 331 332 333 334 334 334 336 336 337 337 336 336 336 335 335 335 334 333 334 333 332 332 333 333 334 333 333 333 333 333 333 333 332 332 331 330 330 330 329 329 328 328 327 327 327 327 325 325 326 324 323 323 319 314 313 313 314 316 317 317 317 317
312 312 313 314 313 312 312 313 313 313 314 314 312 312 313 315 314 312 311 312 312 313 313 314 314 314 314 315 315 316 316 319 323 325 327 329 331 332 333 333 333 335 335 335 336 336 336 335 335 334 334 334 334 333 333 333 332 332 332 333 333 333 333 333 333 333 333 332 332 331 331 330 330 329 329 329 328 329 329 328 328 326 326 327 325 324 324 321 317 315 315 315 315 316 317 317 316
311 311 312 313 313 312 312 313 313 313 313 314 314 313 313 314 315 314 312 311 312 313 314 314 314 314 314 315 315 315 316 316 318 320 322 325 329 330 331 331 332 333 334 334 334 334 335 335 335 334 334 334 334 333 333 333 333 332 332 332 332 333 333 333 332 332 332 333 332 332 331 331 330 330 330 329 329 329 328 328 328 326 325 326 325 324 323 321 319 317 316 316 315 315 316 316 315
313 312 312 312 311 311 313 313 311 312 313 314 314 313 314 314 314 315 314 313 312 313 314 314 314 314 315 315 315 316 316 316 317 317 318 321 324 327 329 329 330 331 332 332 333 334 334 334 334 335 334 334 333 333 333 333 333 332 332 332 332 332 333 332 332 332 332 333 333 331 331 330 330 330 329 329 329 329 329 328 328 326 325 325 325 324 323 321 320 319 318 316 315 315 315 315 314
315 314 312 312 312 310 312 313 310 311 313 313 314 314 314 314 314 314 314 314 313 314 314 314 315 315 315 315 315 316 316 318 320 318 317 318 319 321 324 327 329 329 330 330 331 332 333 334 334 334 334 333 332 333 333 332 332 332 332 332 332 332 332 332 332 332 331 331 332 331 331 331 330 330 329 328 328 329 330 329 328 326 325 326 326 325 324 322 320 319 318 316 315 315 314 314 314
314 314 312 312 312 311 313 313 311 311 312 313 314 314 314 315 314 314 315 314 314 314 314 314 314 314 315 316 316 317 317 322 321 317 316 315 315 315 316 319 323 326 328 329 330 331 332 333 333 333 333 332 332 332 332 332 332 332 332 331 332 332 332 332 331 330 329 330 331 331 331 330 331 331 329 328 328 330 330 329 328 326 326 327 327 326 323 322 320 319 318 317 316 315 314 314 314
313 313 312 311 312 313 312 312 312 311 311 313 315 314 314 315 315 315 315 315 315 315 314 314 315 316 316 316 317 318 320 322 319 316 316 315 315 314 313 313 315 318 322 326 328 329 330 331 332 332 332 332 332 331 331 332 332 332 331 331 331 331 331 332 332 331 331 331 331 331 330 331 332 332 330 330 330 330 330 328 327 327 327 326 326 325 323 322 321 319 318 318 317 315 314 314 314
313 313 310 311 314 312 311 312 312 312 311 312 314 314 314 315 315 315 315 315 316 316 315 316 317 317 318 318 320 320 319 320 318 317 316 315 315 314 313 312 311 313 316 321 325 327 328 329 330 331 331 331 331 331 331 331 331 331 330 330 330 330 330 330 331 331 331 332 332 332 333 333 333 332 331 331 330 330 330 328 328 327 326 324 325 325 323 323 323 322 320 318 316 314 314 314 315
315 317 312 313 315 313 312 313 312 312 311 312 313 311 311 314 314 314 316 316 316 315 314 314 315 316 316 317 318 317 316 317 317 317 317 315 315 314 314 312 311 311 312 315 320 324 326 327 328 329 330 331 331 330 330 330 330 330 329 328 328 329 330 330 330 329 330 330 330 332 333 333 333 332 330 329 329 329 329 329 329 328 325 325 325 325 325 324 323 323 322 318 315 314 314 314 313
313 317 316 314 314 313 314 314 312 311 312 313 313 309 308 313 315 315 315 315 313 313 313 313 314 315 315 314 314 315 315 315 314 314 315 316 315 314 313 313 312 311 311 311 314 318 322 323 325 327 328 329 329 329 329 328 327 328 328 328 327 327 328 328 329 328 328 328 329 329 329 330 330 329 328 327 327 328 328 329 329 328 326 325 326 326 326 324 322 324 323 320 317 316 315 314 312
310 315 316 313 314 315 315 315 313 311 311 312 312 309 308 311 314 315 315 313 313 314 313 313 314 314 315 314 314 315 315 315 315 314 313 313 314 313 312 312 312 312 311 310 310 313 316 318 321 324 326 327 327 327 327 326 325 326 327 327 327 326 326 327 327 327 327 327 328 328 327 327 327 328 328 329 329 329 329 329 330 329 327 326 327 327 326 323 323 325 324 321 319 317 314 314 313
313 317 316 313 315 317 316 316 314 313 313 312 313 313 310 309 312 315 314 313 313 314 313 314 314 314 314 314 315 316 316 316 316 316 315 313 312 312 311 312 312 311 310 309 308 308 310 312 315 319 322 323 325 325 325 325 324 325 326 326 326 326 325 326 326 326 326 326 326 327 327 327 327 328 329 330 330 329 329 328 329 327 326 326 326 326 325 324 323 324 323 321 319 317 314 314 314
315 316 316 315 317 317 317 316 313 314 313 311 313 315 310 308 312 314 313 312 313 313 314 315 315 315 315 315 315 315 315 315 315 315 315 314 313 312 311 312 312 311 309 307 306 306 306 308 312 316 319 321 323 323 323 323 323 323 325 325 325 325 324 325 325 326 325 325 325 325 326 326 326 326 327 328 328 328 327 327 326 326 325 325 325 325 324 323 322 322 322 320 318 317 315 314 314
313 313 316 317 318 318 317 316 313 313 311 311 314 314 310 308 310 312 312 311 312 314 314 315 315 316 315 315 315 314 314 314 314 314 314 314 314 314 313 313 313 312 309 307 307 306 307 310 313 317 319 320 322 322 321 322 322 322 324 324 324 324 324 324 324 325 325 325 324 324 324 325 325 324 324 325 324 324 326 327 327 327 326 326 325 325 324 323 322 321 321 320 319 318 317 315 314
313 315 316 316 316 315 315 314 312 311 311 312 314 314 311 308 308 312 313 311 313 314 314 315 315 315 314 314 313 313 313 314 314 314 314 314 314 314 314 315 315 313 311 310 309 308 308 312 315 317 319 321 322 321 320 321 321 321 322 323 323 323 323 323 323 323 323 323 323 323 323 323 323 323 323 323 322 322 324 325 326 326 327 326 326 326 325 324 323 322 322 322 321 320 318 317 316
315 317 315 313 313 313 312 311 311 312 312 311 310 312 313 309 308 312 313 311 312 314 314 315 315 314 314 314 313 312 312 313 314 315 315 315 315 315 316 316 316 314 314 314 312 310 311 314 317 319 320 320 320 319 319 320 321 321 321 322 323 323 323 323 323 323 322 322 322 321 321 321 321 321 321 321 321 321 321 322 323 324 325 325 325 325 325 324 324 322 322 322 321 320 319 317 316
316 315 312 312 313 313 313 312 312 312 311 308 308 311 312 309 309 312 312 311 311 313 314 315 315 314 314 314 313 312 312 312 314 316 316 317 317 318 317 317 317 317 317 316 315 314 314 316 318 318 317 317 317 317 318 320 320 321 321 321 322 322 322 322 322 322 322 321 321 321 320 320 320 320 320 320 320 320 320 321 321 322 323 323 324 324 324 324 323 323 321 321 320 320 319 317 316
314 314 312 311 312 314 315 313 312 312 310 308 308 311 311 309 310 313 313 311 311 311 312 313 314 313 313 313 313 313 312 312 314 315 316 317 318 318 318 318 318 318 318 317 315 315 315 316 317 316 315 315 316 317 318 319 319 320 320 320 321 321 321 321 321 321 321 321 320 320 320 320 320 320 320 320 319 319 319 319 320 321 322 322 322 323 323 323 322 322 322 321 320 320 319 318 317
315 317 314 312 312 313 313 313 312 313 311 308 308 309 310 309 310 313 312 311 311 310 310 311 311 312 312 313 313 312 312 312 314 315 315 316 316 317 317 317 318 317 317 316 316 315 316 316 317 317 315 316 317 318 319 319 319 319 319 320 320 320 320 320 319 319 319 319 320 320 319 320 320 320 320 320 320 319 319 318 318 319 320 320 320 320 321 321 321 321 320 320 319 319 317 317 316
315 317 315 314 313 311 311 311 311 311 311 310 309 310 311 311 313 313 312 311 310 310 310 310 310 311 312 314 314 312 311 312 313 314 314 314 315 316 316 317 317 316 316 315 315 316 316 317 318 318 316 316 316 317 317 317 318 317 317 318 317 317 318 317 318 318 318 318 319 318 319 319 319 319 319 319 319 319 318 318 318 317 317 318 318 318 318 318 318 318 318 318 318 317 317 316 315
314 313 313 312 313 312 311 309 309 309 310 311 311 311 311 311 312 313 312 311 310 310 310 310 311 313 312 315 316 312 312 314 314 315 315 314 314 315 316 316 315 315 316 315 315 315 315 315 316 316 314 314 314 314 314 314 315 314 314 314 314 314 315 315 315 316 316 317 317 316 316 316 316 317 317 317 317 317 317 316 316 316 316 316 315 315 316 316 316 316 316 315 315 315 315 315 314
313 313 314 311 311 312 310 309 310 309 310 310 310 310 309 308 309 312 312 311 311 311 310 310 312 313 313 316 316 312 313 314 313 314 314 315 315 315 315 315 314 314 314 313 313 313 313 313 313 313 313 312 312 312 312 312 312 312 312 312 312 312 313 313 313 313 314 314 314 314 314 314 314 314 314 314 314 314 314 314 314 314 315 315 314 314 314 314 314 313 313 313 313 313 313 313 313
312 312 314 312 312 311 309 310 311 311 311 310 309 309 308 308 309 310 311 311 311 311 310 310 311 312 314 316 314 313 314 314 314 314 314 315 316 315 314 313 312 312 311 311 311 311 311 311 312 312 312 312 311 311 311 311 311 311 311 311 311 311 311 311 311 311 311 311 311 311 312 312 312 312 312 312 312 312 312 312 312 312 313 313 313 313 313 313 312 312 312 312 312 312 311 311 311
310 310 312 313 313 312 310 311 310 310 311 310 309 309 309 310 311 310 311 311 311 312 311 311 311 313 315 315 314 315 317 316 316 316 315 316 316 314 314 313 312 311 310 310 310 310 310 310 310 311 311 311 310 311 311 311 311 311 311 311 311 310 310 310 310 310 310 310 310 310 310 310 310 310 310 310 310 310 310 311 311 311 311 311 311 311 311 311 311 311 311 311 311 311 310 310 310
310 310 311 312 313 311 310 311 309 310 310 309 310 310 308 311 312 312 311 310 311 312 312 313 313 314 316 315 316 318 318 317 317 316 315 315 314 313 312 311 310 309 309 309 310 310 310 310 310 310 310 310 310 310 310 310 310 310 310 309 309 310 310 310 309 310 309 309 309 309 309 309 309 309 309 309 309 309 309 309 309 309 310 310 310 310 310 310 310 310 310 309 309 309 309 309 309
313 311 311 312 313 311 312 313 311 310 309 309 310 309 309 312 311 311 311 310 310 311 312 314 314 314 314 315 316 318 317 317 316 315 314 314 313 312 310 309 308 309 309 308 309 309 309 309 309 309 309 309 309 309 309 309 309 309 309 309 309 309 309 309 309 309 308 308 308 308 308 308 308 308 308 307 307 308 308 308 308 308 308 308 308 308 309 308 309 309 309 308 308 308 308 308 309
Wind_Speed
3 2 2 3 3 4 5 4 3 2 3 1 3 2 5 5 5 7 7 6 5 5 3 3 6 4 2 4 5 5 8 8 5 2 2 8 14 14 13 15 15 15 15 14 13 12 11 11 9 8 8 8 9 11 13 12 12 11 11 11 9 9 12 15 17 17 16 15 15 16 16 16 16 16 16 17 17 17 16 17 18 17 17 18 18 18 19 19 19 19 19 19 18 17 17 17 17
3 3 3 4 4 4 2 2 4 3 3 2 4 2 7 6 5 7 8 5 5 7 3 4 6 3 4 4 3 3 8 10 7 6 7 14 16 12 14 15 15 16 15 15 14 13 11 10 10 9 8 9 9 11 13 13 12 11 12 11 8 8 11 15 17 17 16 15 15 16 16 16 16 16 16 16 17 17 16 17 18 17 18 18 18 18 18 18 19 18 18 18 18 18 18 17 16
2 2 3 4 5 5 2 3 4 2 3 3 5 4 7 7 6 7 7 6 8 9 5 5 5 2 1 1 1 3 5 8 9 10 9 15 13 11 15 15 15 15 15 15 14 14 12 11 10 9 9 9 8 11 14 14 13 12 12 11 8 8 10 14 16 16 15 15 15 15 15 15 15 15 15 16 16 17 16 16 17 17 17 17 18 18 18 18 18 18 18 18 17 17 17 16 16
1 1 3 3 4 5 4 4 4 3 3 2 5 6 7 7 7 8 9 8 8 7 5 5 4 2 3 3 4 2 6 8 9 9 8 11 11 14 17 16 16 15 14 13 14 14 12 12 11 9 9 8 8 11 13 14 14 13 12 11 9 8 10 14 16 15 15 14 14 14 14 14 14 15 15 15 16 16 16 16 16 16 17 17 17 17 17 17 17 17 17 17 16 16 16 16 16
1 2 4 4 3 2 3 3 3 4 1 1 4 8 8 7 9 9 9 7 6 5 4 6 3 3 1 4 4 2 6 7 8 9 10 11 13 18 17 16 16 14 14 13 14 14 13 12 11 10 9 8 8 10 12 13 14 14 13 12 9 8 10 13 16 15 14 14 13 14 14 14 14 14 14 14 14 13 14 16 17 17 17 17 16 17 17 16 16 16 16 16 15 15 16 16 16
1 2 3 4 3 2 3 3 3 4 3 4 3 8 8 6 10 10 9 7 5 2 2 4 1 3 3 3 3 5 5 5 8 9 11 12 15 18 17 16 14 14 14 13 14 14 13 12 11 10 9 8 7 10 12 13 14 15 14 12 8 8 9 12 15 14 13 14 12 13 14 13 13 13 13 13 13 13 14 16 17 17 16 16 16 16 16 16 16 15 15 15 15 15 15 15 15
2 2 2 4 2 1 5 4 4 3 4 5 3 7 9 8 10 11 10 7 4 2 2 3 1 2 4 4 3 6 6 5 8 8 10 14 17 17 16 15 13 14 14 14 14 13 14 13 11 10 9 9 7 9 12 12 14 14 13 12 9 8 9 11 14 12 12 13 13 13 13 13 13 13 13 13 13 15 15 16 16 15 15 15 16 16 16 16 15 14 14 14 14 14 15 15 14
3 2 1 3 3 3 5 4 1 1 4 4 3 3 6 10 10 10 10 6 5 5 5 4 3 4 3 3 2 6 7 7 8 10 13 16 17 16 15 14 13 14 14 14 13 14 14 13 11 10 9 8 7 9 11 12 14 14 12 12 10 7 8 10 11 11 12 13 13 13 13 12 12 13 13 13 14 15 15 15 15 14 15 15 15 16 15 15 14 14 14 14 14 14 14 14 14
3 2 1 3 4 4 5 3 1 2 4 4 3 3 4 9 10 10 9 6 5 6 7 6 4 3 4 5 4 7 8 8 9 11 14 16 17 16 14 13 14 14 14 13 13 13 14 13 11 10 9 8 8 8 9 10 12 12 11 13 12 8 8 9 9 10 12 13 13 13 12 11 12 13 13 13 13 13 13 14 14 14 14 14 14 15 14 13 13 13 13 13 13 12 12 13 13
3 2 2 3 4 4 5 3 2 3 5 4 4 5 4 7 8 9 9 6 7 6 7 4 3 2 3 5 5 6 8 10 12 13 15 16 17 15 13 13 13 14 14 12 13 12 13 13 12 11 9 8 8 7 8 9 10 10 10 13 13 11 8 8 8 9 11 12 13 13 12 11 12 12 12 12 12 12 13 13 13 13 14 14 13 13 13 12 12 12 12 12 11 10 10 12 14
4 2 2 3 4 5 5 4 4 3 5 4 5 6 5 6 6 8 8 6 7 6 7 4 3 4 2 4 5 6 10 12 14 16 16 16 16 14 12 12 12 13 13 12 13 12 12 13 12 11 10 9 8 7 8 8 9 8 9 12 13 13 9 6 7 10 11 11 13 13 12 11 10 10 11 12 12 12 12 12 12 13 13 12 12 12 12 12 12 11 11 10 9 9 11 13 13
3 4 2 4 6 4 2 2 4 4 5 5 6 6 4 6 6 7 8 6 7 6 8 7 1 3 4 4 4 8 12 12 15 17 17 16 16 14 13 12 12 13 11 11 12 12 12 12 12 11 10 9 8 7 7 7 8 7 8 11 12 13 10 7 7 8 9 10 12 12 12 11 9 9 10 10 12 12 11 11 11 11 11 10 11 11 11 11 11 11 10 10 9 9 12 13 12
3 4 4 4 3 2 0 1 4 4 4 5 6 7 6 8 7 7 7 6 8 6 7 6 0 2 3 5 5 9 12 14 16 17 16 16 16 14 13 12 12 12 11 11 10 11 12 12 12 11 10 9 8 7 7 7 7 7 8 9 10 11 10 9 9 8 8 9 11 11 13 12 9 9 9 9 10 11 10 10 10 10 10 10 11 11 11 11 11 10 10 9 9 10 11 11 11
2 2 4 3 1 2 1 1 4 4 4 6 7 8 8 6 4 3 5 7 7 4 4 4 0 2 2 5 5 6 11 17 17 17 17 15 15 14 13 12 12 12 12 11 10 10 11 12 12 11 11 9 9 8 7 7 6 7 7 8 8 9 9 9 8 8 8 8 9 9 11 12 10 9 8 7 9 11 10 10 10 9 9 9 10 10 10 10 10 10 9 9 9 10 10 9 9
2 2 3 3 2 3 2 1 3 5 4 9 7 9 8 3 1 2 3 4 4 5 4 2 1 2 1 1 3 8 15 20 18 17 17 14 14 13 12 12 12 12 12 12 11 10 11 12 12 11 11 10 9 9 8 7 6 6 6 7 7 7 8 7 7 7 7 7 7 7 9 12 12 9 8 7 9 11 10 10 10 8 8 8 8 10 9 9 9 8 8 8 8 9 9 8 7
3 3 3 4 4 4 4 2 2 4 4 9 7 9 9 4 2 3 1 2 3 5 3 3 1 2 4 5 5 13 21 21 19 17 16 15 14 13 13 12 12 12 12 13 12 11 12 11 11 11 11 11 10 9 8 8 7 7 6 6 7 7 7 7 7 7 7 6 6 6 8 10 12 10 8 7 8 9 10 9 9 8 7 7 8 9 9 9 8 8 8 7 7 7 6 6 5
2 3 4 4 4 4 5 6 4 2 6 9 8 10 9 7 4 2 2 2 1 5 4 3 4 2 5 6 7 15 22 20 21 19 17 16 14 14 14 13 13 13 12 13 13 12 12 12 12 11 11 12 11 10 9 8 9 8 7 6 6 6 6 6 6 7 7 5 5 6 8 9 10 10 8 7 7 7 10 10 8 7 7 7 7 7 8 8 8 7 8 7 7 6 4 4 4
3 4 5 5 5 4 4 6 3 2 6 9 10 11 9 8 7 4 3 5 3 4 5 4 5 4 8 7 6 13 18 19 21 20 19 17 15 15 14 15 15 14 14 14 14 14 13 13 13 12 12 12 11 10 9 8 9 9 7 7 6 6 6 6 6 6 7 6 5 6 7 8 8 8 8 7 8 7 9 11 8 6 6 7 7 7 7 7 7 7 7 7 6 5 5 3 3
5 4 5 6 4 3 2 4 4 2 5 11 10 11 8 7 10 7 5 8 7 6 6 6 6 7 9 9 9 12 15 17 20 20 20 18 17 16 15 15 16 16 15 15 15 15 14 14 14 13 12 12 11 10 9 8 9 9 8 7 6 6 7 7 6 6 7 6 6 6 6 7 8 8 9 9 9 8 9 10 8 7 6 6 6 6 7 7 7 8 7 6 5 5 5 3 2
4 4 6 4 5 5 4 4 5 4 2 11 11 8 6 5 8 7 6 7 8 8 7 8 8 9 10 11 12 13 15 17 18 19 19 19 17 16 16 15 16 16 16 16 15 15 15 15 14 14 13 13 12 11 9 8 9 10 10 9 7 7 7 7 7 7 7 7 7 7 5 7 8 7 10 11 10 8 8 9 8 7 6 6 5 4 5 7 7 7 7 6 4 4 3 2 1
3 3 3 2 6 5 4 5 6 4 1 7 11 8 7 5 6 7 7 6 7 8 7 7 7 9 13 13 14 16 16 17 17 18 19 19 18 16 15 15 15 15 15 16 15 16 16 16 15 15 14 13 13 12 11 10 10 10 10 10 9 8 8 8 8 8 7 8 8 6 6 8 7 6 10 11 9 8 8 8 7 6 5 5 5 3 3 6 7 5 5 5 2 2 3 3 2
3 3 3 4 3 4 5 4 4 3 2 5 10 9 8 6 6 8 9 7 3 2 2 4 2 4 13 15 15 16 16 18 18 19 19 19 19 17 15 15 15 15 15 16 16 16 16 16 16 15 15 14 13 13 12 11 11 11 11 11 10 9 9 9 9 8 8 9 8 7 7 8 7 6 9 10 9 8 8 8 7 7 7 6 6 4 4 5 5 5 5 4 3 3 4 4 3
3 4 3 4 3 4 5 4 3 1 1 6 8 7 7 8 7 7 10 7 4 6 6 7 5 4 12 16 16 16 15 17 19 20 20 20 20 18 16 15 15 15 16 16 16 16 16 17 16 16 16 15 14 14 13 12 11 12 12 12 12 11 10 10 10 9 9 9 9 8 8 8 7 7 9 9 9 9 9 8 8 8 8 8 7 6 6 6 6 6 5 5 5 5 5 5 5
5 3 5 3 5 5 4 4 3 0 1 3 4 5 7 9 6 4 9 7 6 7 6 6 5 6 11 14 15 15 16 18 19 20 20 19 19 19 17 15 14 15 15 16 16 16 17 17 17 16 16 16 15 15 14 14 13 13 13 13 12 11 11 10 11 10 10 10 9 9 8 8 8 8 9 9 9 9 9 9 8 8 8 8 8 7 7 8 7 6 6 7 7 6 6 5 5
8 3 6 3 4 6 5 5 4 2 1 1 2 5 5 4 1 2 9 7 6 6 5 6 6 7 9 12 13 14 15 17 17 18 18 17 17 18 17 15 14 14 15 16 16 16 17 17 18 17 17 17 16 15 15 14 14 14 14 13 12 12 11 11 11 11 11 11 10 10 10 8 8 8 9 9 9 9 9 9 9 8 8 8 9 8 8 9 8 7 7 7 7 5 5 5 5
5 5 8 6 5 6 5 5 5 3 2 2 6 6 3 3 2 4 8 5 6 5 4 5 5 6 8 9 11 12 13 15 17 17 17 16 15 17 18 16 15 15 15 15 16 17 17 18 19 19 18 18 17 15 15 15 14 15 15 14 13 14 13 11 11 11 12 12 11 11 11 10 9 8 8 9 9 9 10 10 10 9 9 10 10 9 9 9 9 8 8 7 7 6 5 6 6
6 9 8 8 6 5 3 5 5 3 3 3 6 5 3 3 1 5 6 5 4 5 6 6 6 7 7 8 9 11 12 14 16 16 16 16 15 17 18 18 18 16 16 16 16 17 17 18 19 20 19 18 17 16 15 15 15 15 16 14 13 14 13 12 11 11 13 12 12 12 12 11 10 10 10 9 9 10 10 11 11 10 10 10 11 11 11 11 10 9 9 8 7 7 6 8 8
9 12 10 8 6 6 3 5 6 3 4 2 3 3 3 3 3 4 5 5 3 6 8 7 7 7 8 9 8 9 10 13 15 15 16 17 16 17 18 19 19 17 16 17 17 17 17 18 19 20 20 18 16 16 17 16 15 14 15 15 14 13 13 15 14 13 13 13 14 14 13 13 12 11 12 12 11 10 10 11 11 11 11 12 13 12 13 12 11 10 11 11 10 8 7 8 9
9 11 8 7 6 6 4 5 4 2 3 2 2 3 5 7 9 5 7 4 3 5 8 8 8 7 7 8 8 7 9 11 13 15 16 17 17 17 18 18 18 17 16 16 16 17 17 18 19 19 20 20 17 17 18 18 17 16 14 15 16 14 13 15 17 16 15 14 15 15 13 13 13 13 13 13 13 11 11 10 10 12 13 14 14 14 14 13 13 13 14 13 12 12 10 10 11
8 8 6 7 6 6 5 4 4 3 3 3 3 4 6 11 12 6 7 4 4 5 7 7 8 7 7 7 7 7 9 12 13 15 16 16 16 16 17 17 17 17 15 15 17 18 17 17 18 19 21 22 19 18 19 18 18 18 16 15 15 15 14 13 16 18 17 15 17 17 15 14 14 14 15 15 14 14 12 10 11 13 14 15 16 16 16 14 14 15 15 14 14 14 13 12 13
6 5 4 6 6 6 7 5 5 4 2 3 5 5 4 7 10 6 5 4 4 6 8 7 7 7 7 7 7 7 9 12 14 16 16 16 16 15 16 16 17 17 16 15 17 18 18 17 17 18 20 22 21 20 20 20 18 17 17 17 15 15 16 15 14 18 21 20 18 17 16 16 15 13 15 16 15 16 15 14 16 16 16 17 18 17 17 16 16 16 17 16 14 16 15 13 12
6 5 5 7 6 5 7 5 5 3 3 6 6 5 5 5 8 6 3 4 5 7 8 7 7 7 8 7 8 8 8 12 14 15 16 16 16 15 16 17 17 18 17 16 16 18 18 18 18 17 18 21 21 20 21 20 19 17 16 16 17 18 19 19 17 18 20 19 18 17 17 19 20 17 16 18 18 19 19 19 20 20 18 20 20 19 18 18 18 18 18 17 15 15 15 13 12
6 6 5 6 8 6 6 5 3 1 4 8 8 5 4 4 6 4 3 4 6 7 8 8 8 7 7 7 7 7 8 10 12 14 16 16 16 16 16 16 18 18 18 16 16 17 19 18 19 18 18 19 20 20 20 19 19 19 17 16 17 18 20 21 19 18 18 18 18 18 18 19 22 22 20 20 20 23 23 22 23 22 22 23 21 21 21 20 21 20 20 20 17 13 12 13 12
6 6 3 3 7 7 5 4 4 4 4 8 10 8 7 3 6 6 5 4 6 7 8 9 8 7 7 7 7 8 8 9 10 13 17 18 17 17 17 16 17 17 17 17 16 16 18 18 19 19 18 18 18 19 20 20 19 18 18 17 17 17 18 18 17 18 19 21 21 21 20 17 18 20 22 22 23 25 25 24 23 22 24 25 23 23 23 22 22 22 22 22 21 17 12 11 12
9 8 5 2 4 5 4 4 5 8 6 7 10 10 12 8 5 7 8 7 6 6 6 6 8 8 8 7 7 8 8 9 10 12 16 18 18 18 18 17 17 17 17 18 18 17 17 17 18 19 19 18 18 18 19 19 18 17 17 18 18 17 18 18 19 20 20 20 21 23 22 20 19 19 20 22 25 26 26 26 22 20 24 26 25 25 24 24 24 24 23 21 22 21 15 13 14
12 12 9 6 6 5 3 4 3 4 6 8 11 10 12 12 9 8 9 10 7 7 6 5 6 7 7 8 7 8 9 9 9 10 11 14 16 17 17 17 17 18 17 17 18 18 18 18 18 19 20 19 18 17 18 18 18 18 18 19 19 19 19 19 20 21 21 19 18 20 21 20 19 19 19 19 21 24 27 26 20 19 24 26 26 27 27 27 27 26 26 22 19 21 21 20 19
11 12 9 7 7 6 5 6 3 1 3 8 12 11 11 12 11 9 8 9 8 9 9 8 8 8 8 9 9 9 10 7 6 8 9 11 14 14 15 15 16 17 17 18 19 20 20 19 19 19 19 19 19 18 18 18 19 18 19 20 19 18 19 20 20 21 21 20 18 19 20 19 19 21 23 21 21 24 27 25 21 21 24 26 27 29 29 28 26 26 26 23 21 22 23 24 24
8 8 8 7 7 4 5 5 4 3 3 6 7 9 12 12 11 10 9 9 10 11 11 11 11 10 9 10 11 11 8 4 5 7 9 11 13 13 14 15 15 16 17 19 20 21 21 20 20 20 18 19 20 19 18 18 18 18 17 17 17 16 17 19 21 23 25 25 24 23 23 23 25 26 25 22 24 28 29 24 23 25 27 29 30 30 30 28 26 26 25 24 25 25 23 25 26
6 6 6 6 4 5 5 4 5 4 3 3 2 6 11 11 11 11 11 12 11 11 12 11 10 10 10 10 10 9 7 5 5 7 8 11 12 12 13 14 15 16 16 17 19 19 20 20 21 20 19 19 20 20 19 17 16 16 14 14 14 14 15 16 17 18 21 25 28 28 28 30 30 29 26 23 26 30 27 20 21 27 27 29 31 31 30 30 29 29 28 28 26 25 24 25 27
5 5 6 5 6 5 2 4 6 3 2 2 3 5 8 9 10 11 13 11 7 7 7 7 6 7 8 6 4 4 6 6 6 7 8 9 11 11 12 12 14 15 14 15 17 18 18 20 21 20 19 19 18 19 19 16 13 13 14 14 14 14 15 16 16 16 15 16 21 24 27 28 27 27 25 25 27 28 24 19 23 27 23 25 31 31 31 31 32 31 31 31 27 23 24 27 28
4 4 6 4 7 5 2 6 7 3 3 2 4 6 7 9 11 11 9 5 4 5 5 7 7 7 7 5 4 4 5 5 6 7 6 8 10 10 12 12 13 15 15 16 16 16 17 18 19 19 18 17 16 17 18 17 14 12 13 14 14 15 16 17 18 19 19 17 17 18 20 21 21 21 20 21 24 27 26 26 29 28 24 26 30 30 30 32 33 32 31 32 30 27 25 24 24
4 5 4 1 6 7 7 9 8 3 5 4 2 5 5 6 10 11 6 4 6 7 7 10 9 7 6 6 6 6 5 6 7 7 6 6 8 8 9 10 12 13 14 15 16 15 15 15 17 17 16 16 16 15 16 17 17 14 14 14 15 16 16 16 16 18 19 19 18 18 20 23 24 25 25 26 27 30 31 32 30 28 28 29 30 30 31 31 33 32 31 32 33 32 27 20 20
5 4 1 2 4 7 9 9 6 2 2 2 2 6 4 3 6 7 5 5 7 6 7 9 8 6 6 5 5 4 5 5 6 6 6 6 6 7 8 9 10 11 11 14 15 15 15 14 15 16 15 15 15 16 16 17 17 16 16 16 15 15 15 14 14 14 15 16 16 17 19 21 23 24 24 27 29 30 31 30 29 28 29 30 29 30 30 31 33 33 32 33 33 32 29 23 22
2 0 1 5 6 7 9 8 6 1 2 3 2 3 4 5 3 4 4 4 7 8 9 8 7 6 5 4 3 3 3 3 4 5 5 6 6 7 7 7 8 9 12 14 15 15 16 16 16 16 15 14 15 16 16 17 17 15 16 16 15 15 14 12 11 11 12 13 13 15 15 16 18 19 19 20 22 22 23 24 25 25 28 30 30 31 31 31 33 33 32 33 33 31 29 30 28
0 1 1 4 5 7 9 6 4 0 0 4 4 3 3 6 3 4 3 5 8 9 10 8 7 5 4 3 2 2 2 2 3 4 4 4 4 5 5 5 6 9 12 14 14 15 16 16 16 15 14 13 14 16 16 16 15 14 14 15 15 15 14 13 11 10 10 11 12 13 14 14 16 18 20 21 21 21 21 23 25 26 28 28 29 30 30 31 31 31 31 32 33 32 31 32 30
3 3 3 5 4 5 5 5 3 2 4 5 5 4 4 5 4 4 3 4 8 8 7 7 6 5 4 3 2 2 2 2 2 3 3 2 2 3 4 5 6 8 11 12 13 14 14 15 14 14 13 12 12 14 15 14 14 13 12 13 13 13 13 12 11 11 11 11 12 13 13 13 14 16 18 19 22 24 24 24 25 27 27 27 29 30 31 32 31 31 32 31 30 31 32 33 33
8 7 7 7 5 4 3 2 2 4 6 3 3 2 3 4 4 5 3 2 3 4 6 6 6 6 5 3 3 1 1 1 2 2 2 2 3 3 4 6 6 7 8 10 11 13 14 13 13 13 12 11 11 12 13 13 13 12 12 12 13 13 12 11 11 11 12 12 12 12 12 12 13 15 16 17 20 22 25 25 25 26 26 27 29 30 32 33 33 33 33 31 31 32 33 34 35
6 5 7 6 4 3 3 3 3 6 5 1 2 1 2 5 4 2 1 2 2 1 5 8 7 7 6 4 3 1 1 1 2 3 3 4 5 5 5 6 7 7 8 9 10 12 13 12 12 13 12 11 12 12 12 12 12 12 12 12 12 12 12 11 11 11 11 11 12 12 11 12 13 14 15 16 17 18 21 24 25 25 27 27 28 29 30 32 32 33 32 31 32 32 33 33 34
3 6 8 6 5 5 5 5 5 6 2 3 1 1 3 7 6 5 3 2 3 2 2 5 7 7 6 4 3 2 1 1 2 3 3 4 4 5 6 7 7 8 8 9 10 11 11 12 12 13 13 13 13 12 11 11 11 10 10 11 10 10 10 10 10 10 10 9 10 10 11 11 12 12 13 14 15 16 18 22 23 24 26 28 29 29 29 30 30 31 31 31 31 31 32 33 35
7 8 8 7 6 5 6 6 5 4 1 2 0 1 3 5 6 8 7 3 5 4 2 2 3 3 3 2 2 1 1 1 2 2 2 3 4 5 6 6 7 7 8 9 11 12 12 13 12 11 12 12 10 9 9 10 10 9 9 9 9 8 8 9 9 9 9 9 9 10 10 10 11 11 12 12 12 12 14 18 21 23 25 26 28 29 29 28 28 28 29 30 31 32 32 33 35
5 3 3 6 5 4 5 5 4 3 3 2 1 2 4 3 1 1 1 3 4 3 2 1 2 1 1 1 1 0 1 2 2 2 2 3 3 4 5 6 7 7 9 11 12 13 13 13 12 11 11 11 10 9 9 9 8 8 8 8 8 8 7 7 7 8 8 9 9 9 10 10 11 11 12 12 12 12 12 13 15 18 21 22 23 25 27 27 27 27 28 28 29 30 30 31 32
3 1 1 4 2 1 1 0 1 2 1 2 3 3 4 3 2 3 4 3 2 2 2 1 3 2 1 1 1 2 2 2 2 2 2 3 3 4 5 6 7 7 9 11 13 13 13 14 13 11 11 11 11 10 9 8 8 7 7 8 8 8 7 7 7 7 8 8 9 9 10 10 11 12 12 12 12 13 13 12 13 15 16 17 18 20 22 23 24 25 27 28 28 28 28 29 31
3 2 3 2 2 3 3 1 2 1 3 3 4 4 3 3 6 3 6 5 4 4 3 3 4 3 3 2 3 4 2 2 2 2 3 3 3 4 5 6 7 7 8 10 11 12 12 13 13 12 12 12 11 11 10 9 9 8 7 7 7 7 7 7 8 8 9 9 9 11 11 11 12 12 12 12 12 11 12 12 13 14 14 14 14 15 16 18 19 21 23 26 27 28 29 30 30
2 3 4 3 1 1 1 2 1 2 5 2 3 5 4 3 3 2 6 6 6 6 6 6 5 4 4 4 4 4 3 3 3 3 3 3 4 4 5 6 7 8 9 10 12 13 13 13 12 11 11 11 11 11 10 9 8 7 7 6 7 8 9 9 10 10 10 10 11 11 12 12 12 12 13 13 11 10 11 12 12 14 16 16 13 13 13 15 16 17 19 21 23 25 27 29 30
1 1 1 2 2 3 3 3 2 4 5 3 3 5 4 5 4 2 4 7 8 8 7 6 7 6 5 5 5 5 5 4 4 4 4 3 5 5 5 6 7 9 10 11 12 12 12 12 11 10 10 9 9 9 8 8 7 7 7 7 8 8 9 10 10 11 11 11 11 11 11 12 12 12 13 13 12 11 11 11 11 12 15 16 15 14 14 15 16 17 17 18 19 20 23 26 28
1 1 0 0 1 2 3 3 3 3 5 4 3 3 3 5 6 5 4 5 7 9 8 7 7 7 6 6 6 5 6 5 5 5 5 5 6 6 6 6 7 9 11 12 12 12 11 11 10 10 9 8 8 8 8 8 7 7 7 8 8 8 8 9 9 10 10 10 10 10 10 11 11 12 13 13 13 13 12 11 10 10 11 12 13 13 13 14 15 17 17 17 17 19 21 23 24
4 4 4 3 1 0 1 3 1 1 3 5 4 3 2 2 4 6 4 4 3 4 5 6 6 6 5 6 6 5 6 6 6 6 5 6 6 6 6 7 9 11 11 12 13 12 12 12 11 11 10 9 9 8 8 8 7 7 7 6 6 5 6 6 6 7 7 8 8 9 10 10 11 12 12 13 12 12 12 12 11 10 11 10 11 12 12 13 14 15 16 17 17 18 20 21 21
3 4 6 6 4 3 3 4 2 0 2 3 2 3 1 2 1 2 2 4 3 1 1 3 5 5 5 5 6 6 6 7 6 6 6 6 7 6 6 8 10 10 11 12 12 12 12 12 11 11 10 9 8 7 7 6 5 5 4 3 2 1 1 2 2 3 4 5 6 7 8 10 11 11 11 12 12 11 11 11 11 11 12 11 11 11 12 12 13 14 16 17 18 18 20 21 21
Wind_Direction
356 326 243 248 263 276 258 238 245 185 252 247 114 157 125 90 108 134 133 136 141 114 63 104 113 85 52 7 17 28 34 28 11 349 78 121 135 129 133 137 137 136 134 135 140 138 129 131 126 118 107 91 87 91 96 96 97 97 90 81 75 83 88 92 91 93 94 91 89 87 86 85 84 82 84 85 84 82 81 82 80 79 79 81 80 78 78 77 77 77 78 77 78 78 79 81 84
344 314 260 251 247 264 261 222 257 173 214 181 135 139 114 128 157 154 147 139 107 109 125 131 127 93 22 353 347 10 53 46 47 71 93 132 133 125 137 140 141 139 137 139 141 139 137 138 130 123 109 95 90 94 103 102 100 101 94 86 87 90 90 98 94 90 95 92 89 90 88 87 86 85 84 84 85 84 81 79 76 77 80 82 82 80 80 79 78 79 79 78 78 78 78 80 84
336 305 251 242 222 240 260 223 256 202 208 169 129 114 126 155 164 143 125 98 93 114 132 124 132 122 328 242 27 5 74 65 79 94 112 138 135 137 146 143 143 141 138 141 142 140 142 143 134 127 112 101 95 100 109 111 111 107 98 86 78 80 89 104 100 93 96 93 92 92 89 86 88 86 83 83 81 77 74 75 75 76 77 78 80 80 79 79 79 79 78 78 79 79 79 80 84
14 274 241 257 225 225 239 221 256 240 212 143 125 132 153 165 144 109 92 89 106 130 137 150 148 100 311 5 28 16 91 80 88 103 135 148 140 145 149 147 145 143 142 143 144 140 144 148 138 130 116 107 101 102 109 112 115 110 101 91 83 82 90 107 105 98 98 94 94 92 90 89 88 87 84 83 79 76 76 76 76 78 79 79 82 82 81 81 81 80 80 80 79 79 80 82 85
16 271 252 273 259 236 251 238 264 247 246 55 123 140 163 156 130 106 99 99 117 149 153 180 153 96 272 11 358 347 89 100 100 112 144 138 130 145 150 149 148 147 146 145 145 141 146 150 139 133 118 110 105 100 106 110 114 113 106 98 98 96 89 104 105 99 99 97 96 94 93 91 87 87 87 85 84 88 86 80 81 84 83 84 85 85 84 83 82 81 81 81 81 81 82 85 87
267 244 239 255 275 317 260 231 223 213 26 8 88 134 156 141 128 119 114 110 111 144 176 198 157 117 157 79 33 30 65 112 110 127 143 132 136 147 150 151 152 148 147 147 145 141 149 152 139 135 121 114 109 102 108 111 115 118 110 97 96 98 90 103 104 98 100 100 99 98 96 93 89 89 89 88 88 88 85 83 85 86 85 84 84 84 83 83 82 81 82 81 82 84 85 88 90
252 212 187 220 220 252 242 229 218 184 49 15 46 128 148 134 128 131 133 134 134 148 211 207 202 188 130 116 111 66 63 83 111 134 131 136 146 148 152 155 151 147 148 147 144 143 153 153 142 138 127 121 113 107 110 113 119 122 112 97 94 90 88 99 101 96 98 101 102 102 98 95 95 93 89 86 83 80 78 80 82 84 83 81 81 81 80 81 81 80 81 82 83 86 87 90 93
261 261 175 233 206 202 248 241 230 86 66 54 51 77 127 136 139 149 154 158 161 164 188 188 225 236 111 133 140 98 97 84 111 127 126 140 148 150 156 156 151 150 148 148 145 148 157 154 146 141 133 126 116 110 110 114 119 121 114 105 99 85 80 88 91 91 97 103 105 103 102 99 96 96 94 87 81 79 78 79 82 84 83 82 82 81 81 81 81 82 82 83 84 86 89 91 94
237 266 185 241 221 199 243 230 145 76 96 101 107 60 87 143 153 157 160 150 148 163 171 173 224 248 122 139 97 117 127 109 125 131 136 146 150 155 159 159 155 151 148 151 149 150 160 156 149 145 138 129 120 115 112 114 121 121 120 119 111 94 83 87 92 96 100 104 108 107 105 101 95 97 97 90 85 83 81 81 84 86 85 85 85 83 83 82 82 84 84 87 88 90 94 96 99
209 238 224 241 233 206 222 210 152 108 114 99 118 136 129 152 164 165 163 144 147 155 143 149 227 237 134 132 101 123 130 129 142 141 146 151 153 157 161 161 156 152 151 155 150 150 162 160 154 148 143 136 128 125 119 116 123 123 122 129 125 112 103 102 106 108 108 107 113 113 107 103 98 99 98 94 91 88 86 86 88 87 86 84 85 85 84 83 84 86 87 90 93 96 100 102 104
203 204 254 245 228 214 212 188 159 122 119 121 122 137 152 162 176 173 157 137 150 148 134 165 203 185 164 112 94 112 124 139 148 148 152 154 156 159 163 161 158 157 154 156 152 150 161 164 160 154 151 147 141 135 130 122 123 123 123 135 136 123 119 123 117 113 114 111 117 116 110 107 101 103 103 102 99 94 94 94 92 89 88 88 87 88 88 87 87 89 92 95 94 100 106 106 106
223 183 198 228 225 221 211 172 152 125 129 154 144 138 156 167 179 174 159 143 157 158 160 190 188 167 182 118 106 126 134 147 150 151 152 155 158 160 165 162 161 161 160 161 156 153 159 165 166 163 161 156 151 144 140 133 127 127 126 137 141 131 126 126 121 119 118 113 118 121 117 114 109 114 115 112 106 101 102 98 95 92 91 91 90 91 91 90 91 92 93 95 95 103 109 107 107
245 195 201 225 248 249 145 123 133 131 163 164 138 137 153 172 184 177 166 153 164 172 162 171 153 237 186 101 117 138 145 151 150 152 152 158 160 160 165 166 166 165 167 167 162 159 160 167 170 170 169 163 159 154 150 146 135 133 133 141 146 141 136 130 126 128 128 124 125 127 130 132 128 129 129 125 115 113 112 105 100 96 94 93 94 95 94 95 97 97 93 94 96 104 110 107 108
266 241 228 223 272 255 190 141 146 174 176 131 115 136 158 175 185 182 178 168 163 146 107 114 342 248 163 120 149 155 152 152 151 152 154 158 159 163 166 168 172 170 171 171 170 170 169 171 172 174 174 170 165 164 162 158 149 141 139 146 152 151 149 145 139 139 138 137 136 133 140 149 146 137 136 134 127 126 122 115 111 105 103 104 105 102 100 100 100 99 97 97 99 105 109 108 109
272 274 253 226 190 203 194 199 175 209 161 122 128 145 158 150 119 200 197 169 122 81 93 110 334 300 61 129 167 152 149 151 152 152 154 158 160 166 167 169 173 173 176 176 178 179 179 177 174 177 175 175 174 172 173 171 166 156 149 150 157 160 158 158 152 153 149 141 141 137 144 159 159 150 147 140 135 135 132 129 128 124 121 121 114 106 104 104 104 104 100 100 102 106 110 109 109
269 274 242 225 207 200 184 180 188 219 144 123 139 149 160 142 157 205 28 9 88 103 168 156 142 330 22 26 57 130 144 147 151 152 153 158 161 166 169 172 174 177 181 182 186 185 188 185 180 181 177 180 178 176 181 182 180 172 164 157 162 168 167 167 162 165 164 154 144 133 135 156 165 161 158 154 149 143 143 150 149 143 137 130 118 110 112 110 108 106 103 101 97 100 107 111 109
273 252 226 219 208 199 174 178 182 170 118 123 145 161 171 150 162 192 57 297 167 140 189 120 113 32 57 63 63 119 138 144 150 154 156 161 164 168 174 176 177 181 184 187 190 189 192 192 188 185 181 183 182 179 180 184 186 181 178 171 170 176 177 175 170 172 175 175 158 131 126 145 161 161 159 162 166 156 151 160 161 154 144 138 128 118 120 116 111 108 107 101 91 90 91 100 109
226 219 215 218 206 190 169 175 158 106 137 144 159 175 183 160 161 160 152 216 199 162 183 140 129 105 89 99 97 127 142 148 154 160 163 168 171 172 177 180 182 184 185 189 192 192 193 194 194 191 187 187 186 181 176 184 187 182 185 186 183 185 188 182 179 181 181 187 171 137 134 149 156 157 160 161 168 166 160 164 166 164 154 151 145 128 125 125 120 115 110 101 94 90 81 82 96
222 224 214 221 189 111 87 132 96 16 155 150 160 181 193 169 157 163 193 195 188 201 190 173 167 144 119 119 131 144 154 158 162 168 170 176 179 178 179 181 186 187 188 190 191 194 193 193 195 195 194 191 189 184 180 186 183 178 180 187 193 194 190 181 184 189 183 191 177 155 159 164 157 164 174 169 169 172 172 174 176 181 171 170 172 155 145 139 129 120 113 107 102 85 83 86 71
228 231 221 204 117 94 69 98 94 28 117 150 158 174 188 160 147 164 204 194 188 212 194 184 192 173 152 140 147 156 168 171 171 176 177 182 185 184 183 183 188 190 190 191 191 194 195 194 195 196 196 194 193 189 187 187 181 179 180 183 188 193 190 182 191 195 189 195 184 173 182 171 161 181 191 182 178 177 183 188 193 196 190 195 190 178 167 143 128 121 115 112 110 95 103 133 110
209 216 244 119 117 123 97 90 94 47 2 157 149 162 178 152 152 177 197 196 193 213 202 185 199 184 162 149 155 164 173 178 181 185 185 188 191 192 191 189 191 192 191 192 194 195 196 196 195 196 196 195 195 192 194 193 186 184 186 187 185 191 194 191 199 202 199 202 192 184 193 181 169 185 193 185 177 174 179 187 195 189 186 194 167 158 186 148 132 137 134 127 144 177 170 176 169
207 193 7 59 117 123 108 90 83 49 337 152 149 167 168 142 171 193 201 211 182 172 139 112 57 152 157 152 155 164 174 181 187 192 192 194 196 196 196 194 193 193 194 195 197 197 197 198 196 196 195 196 196 194 197 197 194 192 192 193 190 192 196 197 202 204 206 208 198 193 196 188 176 178 183 179 178 180 178 178 184 179 177 184 169 169 194 169 161 173 170 167 196 205 194 195 195
235 181 77 50 54 88 115 104 86 35 182 163 161 158 145 156 186 196 215 226 85 71 64 73 54 88 144 149 154 165 177 185 190 195 197 197 199 199 199 197 194 194 195 198 200 199 198 198 198 196 195 196 197 196 199 200 200 199 198 199 195 195 196 199 203 205 210 211 204 201 198 190 183 183 182 181 184 185 184 184 184 184 184 187 183 190 205 195 183 186 191 197 204 209 211 209 206
252 178 127 78 55 87 107 103 119 185 172 153 142 143 160 186 185 167 224 226 110 98 78 84 101 125 144 151 161 172 180 187 194 197 200 201 202 202 202 201 198 195 196 198 200 200 199 199 198 198 197 197 198 198 200 202 203 203 203 202 200 201 199 200 204 206 210 212 209 207 202 196 194 191 188 188 189 189 191 191 189 191 190 192 193 197 214 207 190 190 199 206 210 220 227 220 214
240 176 129 114 78 95 100 111 141 156 124 77 145 175 168 179 135 155 225 217 135 126 116 109 118 139 158 165 170 176 181 189 195 198 202 206 206 205 206 206 203 200 200 199 200 202 201 200 200 200 200 199 199 199 201 205 205 206 207 206 204 205 204 203 206 208 210 212 213 212 206 203 202 199 196 194 193 194 195 193 193 197 194 197 200 199 212 208 197 198 202 209 210 216 229 224 214
208 151 126 124 105 103 112 124 140 152 143 157 186 182 119 68 349 239 219 183 121 136 161 152 142 153 168 175 178 180 183 189 192 196 200 204 207 207 208 207 207 207 204 201 201 203 203 202 203 203 203 202 201 201 203 206 206 208 210 210 208 210 211 209 209 209 211 213 213 215 210 207 208 206 205 202 200 199 202 204 200 201 202 204 207 207 213 209 201 203 204 206 208 210 217 221 218
129 128 114 114 109 107 129 127 132 142 132 186 201 169 112 94 243 235 182 129 121 168 185 178 182 186 179 179 184 186 188 189 190 192 195 200 206 208 208 208 210 210 206 203 202 203 203 203 205 205 205 205 205 205 206 207 208 210 211 211 212 214 214 211 213 212 213 214 214 217 214 211 211 213 215 212 209 205 210 215 208 208 209 211 217 217 220 215 203 204 207 205 210 215 213 226 231
132 129 108 108 113 111 126 127 137 162 140 206 239 149 131 126 215 229 129 118 161 193 195 184 198 202 189 186 184 187 192 189 187 190 195 199 203 206 208 207 208 209 207 205 202 202 203 204 205 206 207 207 208 209 211 212 211 213 213 213 216 217 213 212 215 216 217 217 215 216 215 214 211 213 218 218 218 212 215 223 216 214 216 222 229 227 229 224 209 210 217 215 214 215 214 228 232
156 148 129 131 142 136 141 127 147 209 151 183 254 184 199 198 216 192 123 131 149 191 203 189 199 200 191 188 181 188 191 186 187 193 198 200 203 206 208 207 205 206 208 205 201 200 201 202 204 206 208 209 210 212 214 217 217 217 216 216 217 218 217 217 218 219 220 221 221 217 213 214 214 215 218 218 221 216 217 226 222 219 223 231 237 234 235 231 220 223 231 230 226 226 225 229 233
177 178 163 150 175 173 156 133 164 197 125 172 229 237 222 203 204 155 120 158 157 195 206 190 197 192 189 187 185 194 189 189 192 197 200 200 203 206 209 208 204 205 206 204 201 199 198 198 200 204 207 209 211 213 215 218 220 220 220 218 217 218 220 222 220 220 219 220 227 226 218 213 212 215 219 220 223 220 219 223 227 228 227 234 239 239 240 234 228 232 239 239 234 236 234 232 237
184 179 188 178 198 172 144 144 176 180 129 193 221 249 244 172 170 139 121 178 189 220 217 198 197 186 189 188 191 200 193 199 201 200 200 199 203 205 207 207 204 204 203 201 201 199 198 197 197 201 205 208 212 214 215 218 220 221 223 222 220 220 221 222 222 225 226 224 227 228 224 222 221 217 218 221 221 223 224 225 231 233 231 237 242 245 245 237 231 232 238 238 233 238 236 230 235
186 176 197 197 205 153 135 150 179 185 155 197 214 240 244 144 134 128 134 194 208 230 226 207 200 191 192 189 196 206 203 206 206 205 202 199 202 203 206 205 203 204 202 201 199 197 198 198 197 200 202 205 210 213 215 218 221 222 224 224 224 225 227 227 227 228 229 226 225 227 230 236 238 233 225 223 225 233 238 236 239 241 239 244 246 247 247 240 236 235 238 237 230 236 235 227 230
196 205 197 185 197 169 145 153 178 196 152 196 222 255 249 139 127 137 143 197 208 226 232 217 209 202 196 195 199 206 207 206 207 210 205 201 203 203 203 203 203 204 203 202 198 196 198 199 199 200 201 204 208 212 214 217 220 222 225 227 228 228 230 232 231 231 231 228 226 230 236 241 242 242 240 236 236 242 245 244 247 248 248 251 248 246 247 243 240 240 241 238 231 227 228 227 227
191 211 204 172 201 187 163 151 162 186 188 210 217 242 256 168 133 158 166 190 199 215 230 222 217 212 204 203 202 206 211 208 206 210 206 202 201 202 203 202 202 202 203 204 201 198 198 199 201 202 203 204 206 210 213 217 219 223 226 228 229 230 231 232 231 232 235 235 233 231 233 235 239 242 241 242 243 241 241 245 247 246 248 250 247 246 247 243 240 240 239 239 236 229 223 227 224
182 192 199 163 207 221 196 155 153 180 205 223 209 223 246 232 171 166 172 186 205 219 229 230 227 220 211 208 212 215 215 214 213 211 206 201 199 201 202 202 201 201 202 204 204 202 199 200 202 203 204 204 205 208 211 215 218 222 225 226 228 229 229 230 229 230 233 236 237 234 230 232 239 241 238 242 245 241 238 243 242 239 244 247 244 244 244 241 237 237 236 238 241 237 228 227 225
184 185 202 190 189 214 175 104 105 184 201 219 218 226 241 239 222 201 183 182 206 234 237 242 236 228 221 216 220 221 223 224 215 205 195 189 193 198 200 200 200 201 202 202 203 203 202 202 202 204 205 204 204 206 208 211 214 218 221 223 226 228 228 229 229 229 231 232 234 235 232 232 237 238 237 236 238 240 241 243 239 235 241 245 243 242 241 240 238 238 237 236 238 239 234 231 233
192 187 205 201 192 195 142 102 98 199 221 220 225 238 246 246 239 229 206 184 203 234 238 239 234 229 227 222 224 225 229 224 179 177 178 179 190 193 194 195 194 197 201 201 202 203 203 202 201 204 204 202 203 205 206 208 210 213 217 221 224 226 228 228 228 228 229 232 235 237 236 236 237 235 236 238 241 246 246 243 236 230 236 245 248 247 244 241 240 240 240 234 232 237 239 238 239
196 190 198 201 202 181 112 104 129 149 243 222 216 245 252 251 250 246 231 212 219 233 237 240 236 232 227 222 226 228 227 189 149 176 187 189 194 193 195 195 192 197 201 202 202 203 205 204 204 205 203 203 205 205 206 207 209 211 213 218 223 226 227 228 233 235 236 238 239 241 245 247 246 236 233 243 253 254 249 244 236 234 240 248 249 248 245 241 239 240 239 235 234 236 239 244 244
202 198 199 206 185 131 100 106 127 147 230 218 174 254 259 253 253 248 240 234 232 232 235 239 238 235 229 220 221 223 214 189 182 198 193 187 188 189 195 200 201 203 202 202 203 204 204 205 207 207 205 205 206 206 206 208 211 212 215 221 224 230 232 230 235 240 241 242 241 244 250 249 243 233 231 245 256 251 243 237 237 241 246 249 247 245 244 241 239 240 241 240 238 235 237 244 247
216 203 202 203 159 151 182 158 142 154 224 309 334 281 269 257 252 246 237 235 231 226 231 237 240 238 234 233 233 221 213 205 202 205 197 185 179 181 191 201 206 204 199 199 200 201 202 204 206 206 206 206 206 207 206 207 208 211 219 227 229 234 238 235 233 233 235 241 242 243 246 244 237 233 236 247 251 242 234 233 241 244 242 245 247 244 242 242 242 243 245 242 237 233 236 243 247
215 222 220 197 160 157 64 134 144 150 201 269 302 281 269 245 239 238 224 211 219 215 220 234 237 232 235 256 270 244 228 232 229 223 212 193 185 186 193 199 204 204 204 202 198 197 199 202 204 204 204 204 203 205 204 204 205 210 218 226 229 234 240 240 238 236 233 236 242 238 237 238 236 238 245 251 248 240 239 245 249 245 238 242 248 247 246 247 246 247 248 244 238 235 238 242 245
204 220 233 206 169 148 102 132 152 178 206 200 234 259 266 222 222 230 199 176 221 207 211 232 232 219 212 230 242 230 222 230 237 236 228 213 201 193 188 189 196 202 208 209 205 199 197 200 202 200 201 202 202 201 200 202 205 208 213 218 221 227 235 237 235 236 236 238 243 242 242 243 245 249 254 254 250 246 248 251 252 246 240 246 252 253 253 250 246 249 251 247 243 240 238 237 238
210 206 195 108 159 145 132 157 175 213 210 139 191 243 258 204 207 211 182 200 224 202 209 229 225 209 199 211 223 209 211 218 222 230 231 225 213 204 203 197 196 198 200 206 208 204 201 202 201 197 197 199 199 197 196 199 203 206 212 217 221 224 231 236 235 234 236 239 242 244 246 249 251 253 254 253 249 247 248 249 249 247 245 252 258 258 258 252 248 251 253 250 247 243 237 234 236
213 95 155 147 159 160 157 174 196 221 84 118 199 242 264 257 209 149 155 217 230 218 219 217 204 197 189 195 204 195 218 226 223 230 227 223 217 211 208 194 185 188 195 206 212 212 211 209 205 200 197 196 195 195 194 197 200 202 210 217 223 228 234 239 241 237 236 238 241 243 245 246 246 244 245 248 246 245 246 246 250 253 255 259 261 261 260 255 249 250 253 252 247 242 236 235 239
157 21 251 143 153 167 168 184 197 131 357 201 186 169 247 257 220 134 155 233 236 227 213 194 180 174 165 170 172 170 211 232 243 245 231 217 208 199 189 172 172 189 203 211 214 213 211 207 204 198 193 191 190 191 191 194 198 198 206 215 221 228 235 240 243 243 241 241 243 244 245 247 248 245 242 243 246 248 252 255 258 262 263 261 258 257 255 250 245 245 249 249 245 241 240 238 240
147 160 117 98 114 138 161 195 177 157 244 225 168 171 242 264 228 178 170 232 236 222 187 163 156 147 144 149 142 151 182 200 231 235 226 206 174 170 168 160 168 189 200 200 198 199 197 194 191 185 183 182 183 187 188 189 193 196 203 211 217 224 231 237 241 242 240 241 245 246 247 249 252 253 250 250 252 251 250 256 260 262 260 257 255 253 251 247 245 246 248 249 249 248 246 243 243
141 155 125 107 119 126 150 196 171 198 230 212 126 160 262 278 240 196 182 217 220 193 159 147 145 139 136 131 126 140 152 161 186 174 164 149 134 142 154 151 152 165 175 177 181 185 182 180 177 173 173 171 171 178 181 182 188 195 203 208 215 221 226 232 236 240 242 243 246 248 249 250 251 253 253 253 256 252 247 252 258 260 258 256 254 252 250 249 250 251 252 253 255 253 249 247 247
148 158 142 128 130 152 176 173 196 226 225 146 72 3 246 240 233 170 112 77 83 172 164 158 155 144 136 128 115 106 114 138 154 143 137 135 132 141 149 141 138 142 145 150 161 168 170 168 162 160 161 161 166 172 174 178 186 195 201 205 212 218 224 230 236 242 247 247 249 251 253 255 256 256 254 252 256 257 254 254 255 258 260 261 260 258 255 255 254 253 252 253 253 250 248 247 248
188 172 162 165 163 174 200 189 199 224 206 98 84 344 244 242 249 256 262 172 155 180 140 141 146 141 133 123 96 60 74 134 135 132 134 137 135 138 142 138 134 135 133 139 147 151 156 156 155 161 167 170 173 173 172 175 183 192 198 203 210 216 223 229 236 243 247 249 250 253 255 258 260 260 261 261 261 262 260 258 256 257 259 261 262 262 259 258 256 254 252 252 252 251 250 248 248
195 182 179 193 180 178 202 193 201 222 146 82 128 266 254 258 260 255 253 197 143 136 95 78 107 121 105 82 27 5 65 104 108 122 124 127 130 128 131 131 126 125 124 131 140 142 145 148 152 162 168 171 169 165 168 175 182 189 194 201 206 212 221 226 234 240 243 246 248 250 253 256 257 258 264 270 274 272 264 260 259 258 259 260 261 262 261 260 259 257 256 255 254 254 254 251 250
192 195 201 211 201 203 207 196 203 189 108 101 162 227 234 231 110 170 167 84 95 116 105 44 352 334 353 341 315 291 127 112 95 110 114 107 115 116 115 115 110 113 124 130 136 138 138 141 144 149 154 157 158 161 169 174 182 191 196 206 211 214 223 227 235 240 242 246 248 252 255 255 258 261 265 269 275 276 271 266 266 264 263 261 259 261 263 263 262 261 259 258 257 257 255 254 255
183 4 261 233 243 162 156 160 149 118 86 158 181 241 256 271 280 193 151 132 150 150 129 203 252 224 190 249 176 138 120 115 108 110 114 102 99 102 103 109 108 112 124 132 135 135 137 140 141 144 150 152 154 159 165 170 181 195 203 213 219 223 227 228 233 237 238 241 243 250 255 256 259 263 266 266 266 266 264 266 271 273 274 270 263 262 262 262 263 262 262 260 259 258 257 258 259
166 170 196 214 16 69 124 145 86 68 266 189 164 238 256 269 268 215 148 151 161 161 168 200 216 186 176 192 153 139 129 123 123 107 109 112 111 108 101 104 110 115 122 132 139 140 142 146 146 149 152 152 155 160 165 172 182 194 205 215 223 231 238 242 244 242 242 244 247 254 257 258 259 261 263 263 263 263 261 262 264 265 271 273 270 267 263 261 261 260 261 260 259 257 257 258 258
144 178 177 139 53 9 210 223 144 190 242 201 160 226 233 220 237 138 142 169 165 166 180 184 182 179 182 170 141 137 143 137 129 114 106 109 114 112 101 98 109 123 131 140 148 147 147 147 146 148 152 155 160 163 168 175 182 193 204 217 227 236 243 249 253 251 251 250 252 259 262 264 266 266 267 266 265 266 265 268 268 266 269 268 266 266 265 265 264 263 263 263 263 260 257 258 257
359 233 182 119 199 214 197 216 211 198 226 233 181 207 241 228 210 151 162 180 178 174 172 177 183 185 178 156 137 140 146 146 143 136 131 126 123 117 108 108 122 135 140 144 147 145 145 147 146 148 155 160 163 166 171 177 183 193 204 216 228 237 243 249 254 257 260 261 263 267 269 272 275 275 277 275 270 269 269 271 271 273 277 274 267 262 260 260 261 263 266 267 268 266 261 259 258
36 272 209 44 260 231 195 207 235 222 225 236 198 185 227 218 208 215 192 165 179 178 167 179 193 186 170 146 143 154 154 154 152 145 142 134 127 117 111 119 134 144 147 145 145 143 144 149 149 152 158 161 166 172 176 181 186 193 202 211 222 234 242 249 256 260 266 271 276 280 281 282 280 278 280 279 276 276 277 275 272 273 277 276 271 265 260 259 259 260 263 266 269 269 266 264 262
173 182 176 179 178 290 237 221 229 261 235 235 234 231 216 163 198 222 191 112 132 166 162 176 181 166 145 134 148 157 148 148 145 140 140 131 124 118 119 136 146 148 149 148 148 147 148 151 153 155 156 158 163 169 173 178 182 185 190 199 211 225 237 250 261 268 275 279 282 286 286 285 282 280 281 282 281 280 278 277 275 273 273 272 271 268 264 262 261 259 260 263 268 270 269 268 268
195 196 188 190 172 148 201 210 163 22 259 246 249 256 234 95 84 234 135 103 101 89 133 164 154 143 135 134 148 148 141 145 141 136 135 128 129 130 135 146 144 142 147 148 146 144 143 145 147 146 144 145 148 149 153 154 153 156 159 162 177 199 231 262 275 286 292 292 293 293 291 294 294 294 293 289 285 282 279 279 277 275 273 270 270 270 267 265 264 263 263 264 265 265 266 266 266